Location: Arborea
(39.7744°N, 8.5819°E)
Time: 00:25:49
(UTC+00:00)

Cosmos 1455 - Pass Details

Date: 24 October 2021
Orbit: 496 x 519 km, 82.5° (Epoch: 06 December)

Event Time Altitude Azimuth Distance (km) Brightness Sun altitude
Rises 17:44:19 0° 158° (SSE) 2,622 5.6 -14.2°
Reaches altitude 10° 17:46:44 10° 143° (SE) 1,737 4.5 -14.7°
Enters shadow 17:46:58 11° 141° (SE) 1,661 4.4 -14.7°
